Time,TemperatureF,DewpointF,PressureIn,WindDirection,WindDirectionDegrees,WindSpeedMPH,WindSpeedGustMPH,Humidity,HourlyPrecipIn,Conditions,Clouds,dailyrainin,SolarRadiationWatts/m^2,SoftwareType,DateUTC
2013-08-12 00:00:00,81.4,75.4,30.14,East,92,2.0,2.0,82,0.00,,,0.00,0,Wunderground v.1.15,2013-08-12 04:00:00,
2013-08-12 00:02:00,81.4,75.4,30.15,SE,132,2.0,2.0,82,0.00,,,0.00,0,Wunderground v.1.15,2013-08-12 04:02:00,
2013-08-12 00:04:00,81.4,75.4,30.14,SE,132,1.0,2.0,82,0.00,,,0.00,0,Wunderground v.1.15,2013-08-12 04:04:00,
2013-08-12 00:08:00,81.3,75.3,30.14,SE,132,1.0,2.0,82,0.00,,,0.00,0,Wunderground v.1.15,2013-08-12 04:08:00,
2013-08-12 00:10:00,81.3,75.3,30.14,SE,131,0.0,0.0,82,0.00,,,0.00,0,Wunderground v.1.15,2013-08-12 04:10:00,
2013-08-12 00:12:00,81.2,75.2,30.14,East,94,0.0,4.0,82,0.00,,,0.00,0,Wunderground v.1.15,2013-08-12 04:12:00,
2013-08-12 00:18:00,81.2,75.2,30.14,ESE,114,1.0,4.0,82,0.00,,,0.00,0,Wunderground v.1.15,2013-08-12 04:18:00,
2013-08-12 00:20:00,81.2,75.2,30.14,ESE,109,1.0,4.0,82,0.00,,,0.00,0,Wunderground v.1.15,2013-08-12 04:20:00,
2013-08-12 00:26:00,81.2,75.2,30.14,SE,129,1.0,4.0,82,0.00,,,0.00,0,Wunderground v.1.15,2013-08-12 04:26:00,
2013-08-12 00:32:00,81.2,75.5,30.15,SE,127,0.0,3.0,83,0.00,,,0.00,0,Wunderground v.1.15,2013-08-12 04:32:00,
2013-08-12 00:38:00,81.1,75.4,30.15,ESE,108,1.0,3.0,83,0.00,,,0.00,0,Wunderground v.1.15,2013-08-12 04:38:00,
2013-08-12 00:44:00,81.1,75.4,30.15,ESE,115,1.0,4.0,83,0.00,,,0.00,0,Wunderground v.1.15,2013-08-12 04:44:00,
2013-08-12 00:50:00,81.1,75.1,30.14,ESE,120,2.0,2.0,82,0.00,,,0.00,0,Wunderground v.1.15,2013-08-12 04:50:00,
2013-08-12 00:56:00,81.0,75.0,30.14,ESE,122,1.0,6.0,82,0.00,,,0.00,0,Wunderground v.1.15,2013-08-12 04:56:00,
2013-08-12 01:02:00,81.0,75.3,30.14,ESE,123,1.0,2.0,83,0.00,,,0.00,0,Wunderground v.1.15,2013-08-12 05:02:00,
2013-08-12 01:08:00,81.0,75.3,30.14,ESE,120,1.0,3.0,83,0.00,,,0.00,0,Wunderground v.1.15,2013-08-12 05:08:00,
2013-08-12 01:14:00,80.9,75.6,30.13,ESE,115,1.0,2.0,84,0.00,,,0.00,0,Wunderground v.1.15,2013-08-12 05:14:00,
2013-08-12 01:20:00,80.9,75.6,30.13,SE,125,1.0,1.0,84,0.00,,,0.00,0,Wunderground v.1.15,2013-08-12 05:20:00,
2013-08-12 01:26:00,80.8,75.5,30.13,SSE,157,2.0,5.0,84,0.00,,,0.00,0,Wunderground v.1.15,2013-08-12 05:26:00,
2013-08-12 01:32:00,80.7,75.4,30.13,SSE,152,1.0,1.0,84,0.00,,,0.00,0,Wunderground v.1.15,2013-08-12 05:32:00,
2013-08-12 01:38:00,80.7,75.4,30.13,SE,132,1.0,5.0,84,0.00,,,0.00,0,Wunderground v.1.15,2013-08-12 05:38:00,
2013-08-12 01:44:00,80.7,75.4,30.13,SE,132,1.0,1.0,84,0.00,,,0.00,0,Wunderground v.1.15,2013-08-12 05:44:00,
2013-08-12 01:50:00,80.6,75.3,30.13,SE,132,0.0,0.0,84,0.00,,,0.00,0,Wunderground v.1.15,2013-08-12 05:50:00,
2013-08-12 01:56:00,80.5,75.2,30.13,SE,126,0.0,2.0,84,0.00,,,0.00,0,Wunderground v.1.15,2013-08-12 05:56:00,
2013-08-12 02:02:00,80.5,75.2,30.13,SE,126,0.0,0.0,84,0.00,,,0.00,0,Wunderground v.1.15,2013-08-12 06:02:00,
2013-08-12 02:08:00,80.4,75.1,30.13,SE,126,0.0,0.0,84,0.00,,,0.00,0,Wunderground v.1.15,2013-08-12 06:08:00,
2013-08-12 02:14:00,80.4,75.5,30.12,SE,126,0.0,0.0,85,0.00,,,0.00,0,Wunderground v.1.15,2013-08-12 06:14:00,
2013-08-12 02:20:00,80.4,75.5,30.12,SE,126,0.0,0.0,85,0.00,,,0.00,0,Wunderground v.1.15,2013-08-12 06:20:00,
2013-08-12 02:26:00,80.3,75.4,30.12,SE,126,0.0,0.0,85,0.00,,,0.00,0,Wunderground v.1.15,2013-08-12 06:26:00,
2013-08-12 02:32:00,80.2,75.3,30.12,SE,126,0.0,0.0,85,0.00,,,0.00,0,Wunderground v.1.15,2013-08-12 06:32:00,
2013-08-12 02:38:00,80.1,75.2,30.12,SE,126,0.0,0.0,85,0.00,,,0.00,0,Wunderground v.1.15,2013-08-12 06:38:00,
2013-08-12 02:44:00,80.0,75.1,30.12,SE,126,0.0,0.0,85,0.00,,,0.00,0,Wunderground v.1.15,2013-08-12 06:44:00,
2013-08-12 02:50:00,79.8,74.9,30.12,SE,126,0.0,0.0,85,0.00,,,0.00,0,Wunderground v.1.15,2013-08-12 06:50:00,
2013-08-12 02:56:00,79.6,74.7,30.12,SE,126,0.0,0.0,85,0.00,,,0.00,0,Wunderground v.1.15,2013-08-12 06:56:00,
2013-08-12 03:02:00,79.3,74.4,30.11,SE,126,0.0,0.0,85,0.00,,,0.00,0,Wunderground v.1.15,2013-08-12 07:02:00,
2013-08-12 03:08:00,79.1,74.5,30.11,SE,126,0.0,0.0,86,0.00,,,0.00,0,Wunderground v.1.15,2013-08-12 07:08:00,
2013-08-12 03:14:00,78.8,74.3,30.11,SE,126,0.0,0.0,86,0.00,,,0.00,0,Wunderground v.1.15,2013-08-12 07:14:00,
2013-08-12 03:20:00,78.6,74.4,30.11,SE,126,0.0,0.0,87,0.00,,,0.00,0,Wunderground v.1.15,2013-08-12 07:20:00,
2013-08-12 03:26:00,78.4,74.2,30.11,SE,126,0.0,0.0,87,0.00,,,0.00,0,Wunderground v.1.15,2013-08-12 07:26:00,
2013-08-12 03:32:00,78.2,74.0,30.11,SE,126,0.0,0.0,87,0.00,,,0.00,0,Wunderground v.1.15,2013-08-12 07:32:00,
2013-08-12 03:38:00,78.0,74.2,30.11,SE,126,0.0,0.0,88,0.00,,,0.00,0,Wunderground v.1.15,2013-08-12 07:38:00,
2013-08-12 03:44:00,77.8,74.0,30.10,SE,126,0.0,0.0,88,0.00,,,0.00,0,Wunderground v.1.15,2013-08-12 07:44:00,
2013-08-12 03:50:00,77.6,73.8,30.11,SE,126,0.0,0.0,88,0.00,,,0.00,0,Wunderground v.1.15,2013-08-12 07:50:00,
2013-08-12 03:56:00,77.5,74.0,30.10,SE,126,0.0,0.0,89,0.00,,,0.00,0,Wunderground v.1.15,2013-08-12 07:56:00,
2013-08-12 04:02:00,77.3,73.8,30.10,SE,126,0.0,0.0,89,0.00,,,0.00,0,Wunderground v.1.15,2013-08-12 08:02:00,
2013-08-12 04:08:00,77.2,73.7,30.10,SE,126,0.0,0.0,89,0.00,,,0.00,0,Wunderground v.1.15,2013-08-12 08:08:00,
2013-08-12 04:14:00,77.0,73.8,30.10,SE,126,0.0,0.0,90,0.00,,,0.00,0,Wunderground v.1.15,2013-08-12 08:14:00,
2013-08-12 04:20:00,76.9,73.7,30.10,SE,126,0.0,0.0,90,0.00,,,0.00,0,Wunderground v.1.15,2013-08-12 08:20:00,
2013-08-12 04:26:00,76.8,73.6,30.11,SE,126,0.0,0.0,90,0.00,,,0.00,0,Wunderground v.1.15,2013-08-12 08:26:00,
2013-08-12 04:32:00,76.7,73.9,30.10,SE,126,0.0,0.0,91,0.00,,,0.00,0,Wunderground v.1.15,2013-08-12 08:32:00,
2013-08-12 04:38:00,76.6,73.8,30.10,SE,126,0.0,0.0,91,0.00,,,0.00,0,Wunderground v.1.15,2013-08-12 08:38:00,
2013-08-12 04:44:00,76.5,73.7,30.10,SE,126,0.0,0.0,91,0.00,,,0.00,0,Wunderground v.1.15,2013-08-12 08:44:00,
2013-08-12 04:50:00,76.5,74.0,30.10,SE,126,0.0,0.0,92,0.00,,,0.00,0,Wunderground v.1.15,2013-08-12 08:50:00,
2013-08-12 04:56:00,76.4,73.9,30.10,SE,126,0.0,0.0,92,0.00,,,0.00,0,Wunderground v.1.15,2013-08-12 08:56:00,
2013-08-12 05:02:00,76.3,73.8,30.10,SE,126,0.0,0.0,92,0.00,,,0.00,0,Wunderground v.1.15,2013-08-12 09:02:00,
2013-08-12 05:08:00,76.2,73.7,30.10,SE,126,0.0,0.0,92,0.00,,,0.00,0,Wunderground v.1.15,2013-08-12 09:08:00,
2013-08-12 05:14:00,76.2,73.7,30.10,SE,126,0.0,0.0,92,0.00,,,0.00,0,Wunderground v.1.15,2013-08-12 09:14:00,
2013-08-12 05:20:00,76.1,73.6,30.11,SE,126,0.0,0.0,92,0.00,,,0.00,0,Wunderground v.1.15,2013-08-12 09:20:00,
2013-08-12 05:26:00,76.0,73.5,30.11,SE,126,0.0,0.0,92,0.00,,,0.00,0,Wunderground v.1.15,2013-08-12 09:26:00,
2013-08-12 05:32:00,76.0,73.8,30.11,SE,126,0.0,0.0,93,0.00,,,0.00,0,Wunderground v.1.15,2013-08-12 09:32:00,
2013-08-12 05:38:00,76.0,73.8,30.11,SE,126,0.0,0.0,93,0.00,,,0.00,0,Wunderground v.1.15,2013-08-12 09:38:00,
2013-08-12 05:44:00,76.0,73.8,30.11,SE,126,0.0,0.0,93,0.00,,,0.00,0,Wunderground v.1.15,2013-08-12 09:44:00,
2013-08-12 05:50:00,76.0,73.8,30.11,SE,126,0.0,0.0,93,0.00,,,0.00,0,Wunderground v.1.15,2013-08-12 09:50:00,
2013-08-12 05:56:00,75.9,73.7,30.11,SE,126,0.0,0.0,93,0.00,,,0.00,0,Wunderground v.1.15,2013-08-12 09:56:00,
2013-08-12 06:02:00,75.8,73.6,30.11,SE,126,0.0,0.0,93,0.00,,,0.00,0,Wunderground v.1.15,2013-08-12 10:02:00,
2013-08-12 06:08:00,75.8,73.6,30.11,SE,126,0.0,0.0,93,0.00,,,0.00,0,Wunderground v.1.15,2013-08-12 10:08:00,
2013-08-12 06:14:00,75.8,73.6,30.11,SE,126,0.0,0.0,93,0.00,,,0.00,0,Wunderground v.1.15,2013-08-12 10:14:00,
2013-08-12 06:20:00,75.8,73.6,30.11,SE,126,0.0,0.0,93,0.00,,,0.00,0,Wunderground v.1.15,2013-08-12 10:20:00,
2013-08-12 06:26:00,75.7,73.5,30.11,SE,126,0.0,0.0,93,0.00,,,0.00,0,Wunderground v.1.15,2013-08-12 10:26:00,
2013-08-12 06:32:00,75.6,73.4,30.11,SE,126,0.0,0.0,93,0.00,,,0.00,0,Wunderground v.1.15,2013-08-12 10:32:00,
2013-08-12 06:38:00,75.6,73.4,30.11,SE,126,0.0,0.0,93,0.00,,,0.00,0,Wunderground v.1.15,2013-08-12 10:38:00,
2013-08-12 06:44:00,75.6,73.4,30.11,SE,126,0.0,0.0,93,0.00,,,0.00,0,Wunderground v.1.15,2013-08-12 10:44:00,
2013-08-12 06:50:00,75.6,73.4,30.11,SE,126,0.0,0.0,93,0.00,,,0.00,5,Wunderground v.1.15,2013-08-12 10:50:00,
2013-08-12 06:56:00,75.6,73.8,30.11,SE,126,0.0,0.0,94,0.00,,,0.00,9,Wunderground v.1.15,2013-08-12 10:56:00,
2013-08-12 07:02:00,75.6,73.8,30.12,SE,126,0.0,0.0,94,0.00,,,0.00,18,Wunderground v.1.15,2013-08-12 11:02:00,
2013-08-12 07:08:00,75.6,73.8,30.12,SE,126,0.0,0.0,94,0.00,,,0.00,28,Wunderground v.1.15,2013-08-12 11:08:00,
2013-08-12 07:14:00,75.6,73.8,30.12,SE,126,0.0,0.0,94,0.00,,,0.00,35,Wunderground v.1.15,2013-08-12 11:14:00,
2013-08-12 07:20:00,75.7,73.8,30.12,SE,126,0.0,0.0,94,0.00,,,0.00,49,Wunderground v.1.15,2013-08-12 11:20:00,
2013-08-12 07:26:00,75.7,73.8,30.12,SE,126,0.0,0.0,94,0.00,,,0.00,60,Wunderground v.1.15,2013-08-12 11:26:00,
2013-08-12 07:32:00,75.9,74.0,30.12,SE,126,0.0,0.0,94,0.00,,,0.00,74,Wunderground v.1.15,2013-08-12 11:32:00,
2013-08-12 07:38:00,76.1,74.2,30.12,SE,126,0.0,0.0,94,0.00,,,0.00,88,Wunderground v.1.15,2013-08-12 11:38:00,
2013-08-12 07:44:00,76.4,74.5,30.12,SE,126,0.0,0.0,94,0.00,,,0.00,102,Wunderground v.1.15,2013-08-12 11:44:00,
2013-08-12 07:50:00,76.8,74.9,30.12,SE,126,0.0,0.0,94,0.00,,,0.00,121,Wunderground v.1.15,2013-08-12 11:50:00,
2013-08-12 07:56:00,77.2,75.3,30.13,SE,126,0.0,0.0,94,0.00,,,0.00,139,Wunderground v.1.15,2013-08-12 11:56:00,
2013-08-12 08:02:00,77.7,75.5,30.13,SE,126,0.0,0.0,93,0.00,,,0.00,156,Wunderground v.1.15,2013-08-12 12:02:00,
2013-08-12 08:08:00,78.2,76.0,30.13,SE,126,0.0,0.0,93,0.00,,,0.00,176,Wunderground v.1.15,2013-08-12 12:08:00,
2013-08-12 08:14:00,78.7,76.2,30.13,SE,126,0.0,0.0,92,0.00,,,0.00,193,Wunderground v.1.15,2013-08-12 12:14:00,
2013-08-12 08:20:00,79.2,76.3,30.13,SE,126,0.0,0.0,91,0.00,,,0.00,186,Wunderground v.1.15,2013-08-12 12:20:00,
2013-08-12 08:26:00,79.7,76.5,30.13,SE,126,0.0,0.0,90,0.00,,,0.00,236,Wunderground v.1.15,2013-08-12 12:26:00,
2013-08-12 08:32:00,80.3,76.8,30.13,SE,127,0.0,0.0,89,0.00,,,0.00,264,Wunderground v.1.15,2013-08-12 12:32:00,
2013-08-12 08:38:00,81.0,77.1,30.13,ESE,120,0.0,0.0,88,0.00,,,0.00,276,Wunderground v.1.15,2013-08-12 12:38:00,
2013-08-12 08:44:00,81.6,77.0,30.13,ESE,120,0.0,0.0,86,0.00,,,0.00,301,Wunderground v.1.15,2013-08-12 12:44:00,
2013-08-12 08:50:00,82.4,77.1,30.13,ESE,120,0.0,0.0,84,0.00,,,0.00,322,Wunderground v.1.15,2013-08-12 12:50:00,
2013-08-12 08:56:00,82.8,76.7,30.13,ESE,120,0.0,0.0,82,0.00,,,0.00,357,Wunderground v.1.15,2013-08-12 12:56:00,
2013-08-12 09:02:00,83.2,76.8,30.13,ESE,120,0.0,0.0,81,0.00,,,0.00,313,Wunderground v.1.15,2013-08-12 13:02:00,
2013-08-12 09:08:00,83.5,77.1,30.13,ESE,118,0.0,0.0,81,0.00,,,0.00,396,Wunderground v.1.15,2013-08-12 13:08:00,
2013-08-12 09:14:00,83.9,77.1,30.14,ESE,117,0.0,0.0,80,0.00,,,0.00,434,Wunderground v.1.15,2013-08-12 13:14:00,
2013-08-12 09:20:00,84.6,77.4,30.14,ESE,102,0.0,0.0,79,0.00,,,0.00,406,Wunderground v.1.15,2013-08-12 13:20:00,
2013-08-12 09:26:00,84.7,75.9,30.13,ENE,72,1.0,5.0,75,0.00,,,0.00,452,Wunderground v.1.15,2013-08-12 13:26:00,
2013-08-12 09:32:00,84.6,76.2,30.13,ENE,72,1.0,1.0,76,0.00,,,0.00,485,Wunderground v.1.15,2013-08-12 13:32:00,
2013-08-12 09:38:00,84.7,75.9,30.13,NE,36,1.0,3.0,75,0.00,,,0.00,497,Wunderground v.1.15,2013-08-12 13:38:00,
2013-08-12 09:44:00,84.8,76.0,30.13,NE,40,1.0,1.0,75,0.00,,,0.00,524,Wunderground v.1.15,2013-08-12 13:44:00,
2013-08-12 09:50:00,85.2,76.0,30.13,NE,42,0.0,0.0,74,0.00,,,0.00,536,Wunderground v.1.15,2013-08-12 13:50:00,
2013-08-12 09:56:00,85.0,75.4,30.14,NNE,30,1.0,1.0,73,0.00,,,0.00,559,Wunderground v.1.15,2013-08-12 13:56:00,
2013-08-12 10:02:00,85.0,75.4,30.14,ENE,76,2.0,4.0,73,0.00,,,0.00,580,Wunderground v.1.15,2013-08-12 14:02:00,
2013-08-12 10:08:00,85.1,75.9,30.14,ENE,78,2.0,4.0,74,0.00,,,0.00,596,Wunderground v.1.15,2013-08-12 14:08:00,
2013-08-12 10:14:00,85.1,76.3,30.14,ENE,68,2.0,4.0,75,0.00,,,0.00,580,Wunderground v.1.15,2013-08-12 14:14:00,
2013-08-12 10:20:00,85.4,75.8,30.14,ENE,74,2.0,5.0,73,0.00,,,0.00,622,Wunderground v.1.15,2013-08-12 14:20:00,
2013-08-12 10:26:00,85.2,75.6,30.14,ENE,72,2.0,5.0,73,0.00,,,0.00,647,Wunderground v.1.15,2013-08-12 14:26:00,
2013-08-12 10:32:00,85.4,76.2,30.13,ENE,57,2.0,2.0,74,0.00,,,0.00,671,Wunderground v.1.15,2013-08-12 14:32:00,
2013-08-12 10:38:00,85.3,75.7,30.14,ENE,65,3.0,3.0,73,0.00,,,0.00,691,Wunderground v.1.15,2013-08-12 14:38:00,
2013-08-12 10:44:00,85.4,75.8,30.14,East,91,2.0,3.0,73,0.00,,,0.00,615,Wunderground v.1.15,2013-08-12 14:44:00,
2013-08-12 10:50:00,85.3,76.1,30.14,East,81,3.0,3.0,74,0.00,,,0.00,696,Wunderground v.1.15,2013-08-12 14:50:00,
2013-08-12 10:56:00,85.4,76.2,30.14,ENE,75,2.0,3.0,74,0.00,,,0.00,729,Wunderground v.1.15,2013-08-12 14:56:00,
2013-08-12 11:02:00,85.5,76.3,30.13,ENE,71,2.0,3.0,74,0.00,,,0.00,642,Wunderground v.1.15,2013-08-12 15:02:00,
2013-08-12 11:08:00,85.3,75.7,30.13,NE,44,3.0,6.0,73,0.00,,,0.00,800,Wunderground v.1.15,2013-08-12 15:08:00,
2013-08-12 11:14:00,85.4,76.2,30.13,NNE,21,3.0,6.0,74,0.00,,,0.00,793,Wunderground v.1.15,2013-08-12 15:14:00,
2013-08-12 11:20:00,85.3,76.1,30.13,East,86,3.0,4.0,74,0.00,,,0.00,805,Wunderground v.1.15,2013-08-12 15:20:00,
2013-08-12 11:26:00,85.2,76.0,30.13,East,89,3.0,4.0,74,0.00,,,0.00,770,Wunderground v.1.15,2013-08-12 15:26:00,
2013-08-12 11:32:00,85.6,75.5,30.13,NE,46,3.0,4.0,72,0.00,,,0.00,835,Wunderground v.1.15,2013-08-12 15:32:00,
2013-08-12 11:38:00,85.4,75.8,30.12,NE,49,3.0,4.0,73,0.00,,,0.00,824,Wunderground v.1.15,2013-08-12 15:38:00,
2013-08-12 11:44:00,85.8,75.3,30.12,ENE,61,2.0,4.0,71,0.00,,,0.00,821,Wunderground v.1.15,2013-08-12 15:44:00,
2013-08-12 11:50:00,85.5,75.4,30.12,ENE,57,3.0,3.0,72,0.00,,,0.00,805,Wunderground v.1.15,2013-08-12 15:50:00,
2013-08-12 11:56:00,85.6,75.1,30.12,ENE,77,3.0,4.0,71,0.00,,,0.00,889,Wunderground v.1.15,2013-08-12 15:56:00,
2013-08-12 12:02:00,85.9,74.5,30.12,ENE,74,3.0,4.0,69,0.00,,,0.00,898,Wunderground v.1.15,2013-08-12 16:02:00,
2013-08-12 12:08:00,86.2,75.7,30.12,ENE,69,3.0,4.0,71,0.00,,,0.00,919,Wunderground v.1.15,2013-08-12 16:08:00,
2013-08-12 12:14:00,86.4,74.6,30.12,ENE,76,2.0,3.0,68,0.00,,,0.00,812,Wunderground v.1.15,2013-08-12 16:14:00,
2013-08-12 12:20:00,86.8,75.0,30.11,East,95,2.0,2.0,68,0.00,,,0.00,911,Wunderground v.1.15,2013-08-12 16:20:00,
2013-08-12 12:26:00,87.0,75.2,30.11,East,88,3.0,4.0,68,0.00,,,0.00,909,Wunderground v.1.15,2013-08-12 16:26:00,
2013-08-12 12:32:00,86.8,75.0,30.11,ENE,78,3.0,4.0,68,0.00,,,0.00,854,Wunderground v.1.15,2013-08-12 16:32:00,
2013-08-12 12:38:00,86.7,75.3,30.11,ENE,59,3.0,5.0,69,0.00,,,0.00,970,Wunderground v.1.15,2013-08-12 16:38:00,
2013-08-12 12:44:00,86.6,75.2,30.11,East,88,4.0,7.0,69,0.00,,,0.00,847,Wunderground v.1.15,2013-08-12 16:44:00,
2013-08-12 12:50:00,86.2,75.3,30.11,ENE,67,4.0,4.0,70,0.00,,,0.00,891,Wunderground v.1.15,2013-08-12 16:50:00,
2013-08-12 12:56:00,86.5,75.5,30.11,NE,56,3.0,4.0,70,0.00,,,0.00,893,Wunderground v.1.15,2013-08-12 16:56:00,
2013-08-12 13:02:00,86.1,75.6,30.11,East,80,4.0,5.0,71,0.00,,,0.00,1011,Wunderground v.1.15,2013-08-12 17:02:00,
2013-08-12 13:08:00,86.1,76.0,30.11,East,79,4.0,9.0,72,0.00,,,0.00,990,Wunderground v.1.15,2013-08-12 17:08:00,
2013-08-12 13:14:00,86.3,75.8,30.11,East,93,4.0,6.0,71,0.00,,,0.00,949,Wunderground v.1.15,2013-08-12 17:14:00,
2013-08-12 13:20:00,86.6,75.6,30.10,ENE,72,4.0,4.0,70,0.00,,,0.00,986,Wunderground v.1.15,2013-08-12 17:20:00,
2013-08-12 13:26:00,86.3,75.4,30.11,ENE,78,4.0,6.0,70,0.00,,,0.00,925,Wunderground v.1.15,2013-08-12 17:26:00,
2013-08-12 13:32:00,85.9,75.4,30.10,East,84,5.0,6.0,71,0.00,,,0.00,997,Wunderground v.1.15,2013-08-12 17:32:00,
2013-08-12 13:38:00,85.9,76.6,30.10,ENE,76,5.0,7.0,74,0.00,,,0.00,1021,Wunderground v.1.15,2013-08-12 17:38:00,
2013-08-12 13:44:00,85.9,75.4,30.10,ENE,73,4.0,8.0,71,0.00,,,0.00,965,Wunderground v.1.15,2013-08-12 17:44:00,
2013-08-12 13:50:00,86.1,75.2,30.10,East,85,4.0,5.0,70,0.00,,,0.00,900,Wunderground v.1.15,2013-08-12 17:50:00,
2013-08-12 13:56:00,85.9,75.0,30.10,NE,52,4.0,6.0,70,0.00,,,0.00,663,Wunderground v.1.15,2013-08-12 17:56:00,
2013-08-12 14:02:00,86.2,76.1,30.10,ENE,69,3.0,3.0,72,0.00,,,0.00,1042,Wunderground v.1.15,2013-08-12 18:02:00,
2013-08-12 14:04:00,86.3,74.9,30.10,East,79,2.0,3.0,69,0.00,,,0.00,1002,Wunderground v.1.15,2013-08-12 18:04:00,
2013-08-12 14:10:00,86.4,75.5,30.09,ENE,68,2.0,6.0,70,0.00,,,0.00,896,Wunderground v.1.15,2013-08-12 18:10:00,
2013-08-12 14:16:00,86.3,75.8,30.09,ENE,64,4.0,6.0,71,0.00,,,0.00,865,Wunderground v.1.15,2013-08-12 18:16:00,
2013-08-12 14:22:00,86.1,75.2,30.09,ENE,77,4.0,4.0,70,0.00,,,0.00,831,Wunderground v.1.15,2013-08-12 18:22:00,
2013-08-12 14:28:00,86.0,75.5,30.09,ENE,75,4.0,6.0,71,0.00,,,0.00,963,Wunderground v.1.15,2013-08-12 18:28:00,
2013-08-12 14:34:00,86.1,74.7,30.09,ENE,77,5.0,5.0,69,0.00,,,0.00,972,Wunderground v.1.15,2013-08-12 18:34:00,
2013-08-12 14:40:00,86.3,74.9,30.08,ENE,70,5.0,6.0,69,0.00,,,0.00,983,Wunderground v.1.15,2013-08-12 18:40:00,
2013-08-12 14:46:00,86.3,75.4,30.08,East,82,4.0,6.0,70,0.00,,,0.00,919,Wunderground v.1.15,2013-08-12 18:46:00,
2013-08-12 14:52:00,86.3,76.2,30.08,ENE,71,4.0,4.0,72,0.00,,,0.00,902,Wunderground v.1.15,2013-08-12 18:52:00,
2013-08-12 14:58:00,86.1,75.2,30.09,ENE,65,3.0,7.0,70,0.00,,,0.00,932,Wunderground v.1.15,2013-08-12 18:58:00,
2013-08-12 15:04:00,85.7,75.6,30.08,NE,52,4.0,8.0,72,0.00,,,0.00,916,Wunderground v.1.15,2013-08-12 19:04:00,
2013-08-12 15:10:00,85.6,75.5,30.08,East,101,5.0,5.0,72,0.00,,,0.00,904,Wunderground v.1.15,2013-08-12 19:10:00,
2013-08-12 15:16:00,85.6,76.4,30.08,NE,46,5.0,6.0,74,0.00,,,0.00,900,Wunderground v.1.15,2013-08-12 19:16:00,
2013-08-12 15:22:00,86.1,76.0,30.08,ENE,59,4.0,5.0,72,0.00,,,0.00,891,Wunderground v.1.15,2013-08-12 19:22:00,
2013-08-12 15:28:00,86.3,76.2,30.08,East,94,3.0,6.0,72,0.00,,,0.00,865,Wunderground v.1.15,2013-08-12 19:28:00,
2013-08-12 15:34:00,86.2,75.7,30.08,ENE,76,4.0,5.0,71,0.00,,,0.00,856,Wunderground v.1.15,2013-08-12 19:34:00,
2013-08-12 15:40:00,85.8,75.3,30.08,East,89,5.0,5.0,71,0.00,,,0.00,842,Wunderground v.1.15,2013-08-12 19:40:00,
2013-08-12 15:46:00,85.9,76.2,30.08,ESE,105,5.0,5.0,73,0.00,,,0.00,789,Wunderground v.1.15,2013-08-12 19:46:00,
2013-08-12 15:52:00,86.2,76.1,30.08,ENE,65,5.0,9.0,72,0.00,,,0.00,816,Wunderground v.1.15,2013-08-12 19:52:00,
2013-08-12 15:58:00,86.0,76.3,30.08,ENE,70,5.0,9.0,73,0.00,,,0.00,708,Wunderground v.1.15,2013-08-12 19:58:00,
2013-08-12 16:04:00,85.7,76.0,30.07,East,79,5.0,9.0,73,0.00,,,0.00,807,Wunderground v.1.15,2013-08-12 20:04:00,
2013-08-12 16:10:00,85.9,76.2,30.07,ENE,78,5.0,5.0,73,0.00,,,0.00,759,Wunderground v.1.15,2013-08-12 20:10:00,
2013-08-12 16:16:00,86.1,75.6,30.07,ESE,105,5.0,6.0,71,0.00,,,0.00,689,Wunderground v.1.15,2013-08-12 20:16:00,
2013-08-12 16:22:00,86.2,75.3,30.08,East,90,5.0,7.0,70,0.00,,,0.00,621,Wunderground v.1.15,2013-08-12 20:22:00,
2013-08-12 16:28:00,85.9,75.8,30.07,NE,51,5.0,7.0,72,0.00,,,0.00,666,Wunderground v.1.15,2013-08-12 20:28:00,
2013-08-12 16:34:00,85.4,75.8,30.07,ENE,68,6.0,6.0,73,0.00,,,0.00,721,Wunderground v.1.15,2013-08-12 20:34:00,
2013-08-12 16:40:00,85.7,75.6,30.07,East,81,5.0,5.0,72,0.00,,,0.00,668,Wunderground v.1.15,2013-08-12 20:40:00,
2013-08-12 16:46:00,85.9,76.2,30.07,ENE,60,5.0,6.0,73,0.00,,,0.00,652,Wunderground v.1.15,2013-08-12 20:46:00,
2013-08-12 16:52:00,85.9,76.2,30.07,East,79,5.0,5.0,73,0.00,,,0.00,657,Wunderground v.1.15,2013-08-12 20:52:00,
2013-08-12 16:58:00,86.0,76.3,30.07,East,92,4.0,5.0,73,0.00,,,0.00,654,Wunderground v.1.15,2013-08-12 20:58:00,
2013-08-12 17:04:00,86.2,76.5,30.07,ENE,69,3.0,4.0,73,0.00,,,0.00,643,Wunderground v.1.15,2013-08-12 21:04:00,
2013-08-12 17:10:00,86.4,76.3,30.07,East,82,3.0,6.0,72,0.00,,,0.00,624,Wunderground v.1.15,2013-08-12 21:10:00,
2013-08-12 17:16:00,86.2,76.1,30.07,ENE,70,4.0,6.0,72,0.00,,,0.00,503,Wunderground v.1.15,2013-08-12 21:16:00,
2013-08-12 17:22:00,85.9,76.2,30.06,ESE,112,4.0,6.0,73,0.00,,,0.00,485,Wunderground v.1.15,2013-08-12 21:22:00,
2013-08-12 17:28:00,85.7,76.0,30.06,East,98,4.0,6.0,73,0.00,,,0.00,522,Wunderground v.1.15,2013-08-12 21:28:00,
2013-08-12 17:34:00,85.7,76.5,30.06,SE,128,4.0,7.0,74,0.00,,,0.00,485,Wunderground v.1.15,2013-08-12 21:34:00,
2013-08-12 17:40:00,85.7,76.5,30.06,East,85,4.0,4.0,74,0.00,,,0.00,478,Wunderground v.1.15,2013-08-12 21:40:00,
2013-08-12 17:46:00,85.7,76.9,30.06,East,87,4.0,6.0,75,0.00,,,0.00,336,Wunderground v.1.15,2013-08-12 21:46:00,
2013-08-12 17:52:00,85.4,76.6,30.06,ESE,111,4.0,4.0,75,0.00,,,0.00,445,Wunderground v.1.15,2013-08-12 21:52:00,
2013-08-12 17:58:00,85.4,76.6,30.06,ESE,117,3.0,9.0,75,0.00,,,0.00,429,Wunderground v.1.15,2013-08-12 21:58:00,
2013-08-12 18:04:00,85.6,76.8,30.06,ESE,108,3.0,8.0,75,0.00,,,0.00,397,Wunderground v.1.15,2013-08-12 22:04:00,
2013-08-12 18:10:00,85.5,76.7,30.06,East,84,4.0,4.0,75,0.00,,,0.00,381,Wunderground v.1.15,2013-08-12 22:10:00,
2013-08-12 18:16:00,85.4,76.2,30.06,ESE,113,4.0,5.0,74,0.00,,,0.00,360,Wunderground v.1.15,2013-08-12 22:16:00,
2013-08-12 18:22:00,85.2,76.4,30.06,SE,140,4.0,7.0,75,0.00,,,0.00,339,Wunderground v.1.15,2013-08-12 22:22:00,
2013-08-12 18:28:00,85.1,76.3,30.06,SE,124,4.0,7.0,75,0.00,,,0.00,318,Wunderground v.1.15,2013-08-12 22:28:00,
2013-08-12 18:34:00,85.1,76.3,30.05,East,101,4.0,4.0,75,0.00,,,0.00,299,Wunderground v.1.15,2013-08-12 22:34:00,
2013-08-12 18:40:00,85.0,76.6,30.05,ESE,110,3.0,6.0,76,0.00,,,0.00,269,Wunderground v.1.15,2013-08-12 22:40:00,
2013-08-12 18:46:00,84.8,76.4,30.05,East,90,4.0,6.0,76,0.00,,,0.00,251,Wunderground v.1.15,2013-08-12 22:46:00,
2013-08-12 18:52:00,84.7,76.3,30.05,SE,140,4.0,7.0,76,0.00,,,0.00,230,Wunderground v.1.15,2013-08-12 22:52:00,
2013-08-12 18:58:00,84.5,76.5,30.05,ESE,109,5.0,7.0,77,0.00,,,0.00,211,Wunderground v.1.15,2013-08-12 22:58:00,
2013-08-12 19:04:00,84.4,76.4,30.05,East,98,4.0,4.0,77,0.00,,,0.00,185,Wunderground v.1.15,2013-08-12 23:04:00,
2013-08-12 19:10:00,84.4,76.4,30.05,SE,134,3.0,6.0,77,0.00,,,0.00,153,Wunderground v.1.15,2013-08-12 23:10:00,
2013-08-12 19:16:00,84.3,76.3,30.05,ESE,108,3.0,7.0,77,0.00,,,0.00,121,Wunderground v.1.15,2013-08-12 23:16:00,
2013-08-12 19:22:00,84.1,76.5,30.05,SE,125,3.0,4.0,78,0.00,,,0.00,40,Wunderground v.1.15,2013-08-12 23:22:00,
2013-08-12 19:28:00,83.8,76.2,30.05,East,92,3.0,9.0,78,0.00,,,0.00,33,Wunderground v.1.15,2013-08-12 23:28:00,
2013-08-12 19:34:00,83.6,76.0,30.05,ESE,111,2.0,4.0,78,0.00,,,0.00,26,Wunderground v.1.15,2013-08-12 23:34:00,
2013-08-12 19:40:00,83.5,75.9,30.05,SE,130,1.0,6.0,78,0.00,,,0.00,23,Wunderground v.1.15,2013-08-12 23:40:00,
2013-08-12 19:46:00,83.4,76.2,30.05,SE,134,2.0,6.0,79,0.00,,,0.00,18,Wunderground v.1.15,2013-08-12 23:46:00,
2013-08-12 19:52:00,83.2,76.4,30.05,ESE,106,2.0,2.0,80,0.00,,,0.00,12,Wunderground v.1.15,2013-08-12 23:52:00,
2013-08-12 19:58:00,83.0,76.2,30.06,SE,124,2.0,6.0,80,0.00,,,0.00,5,Wunderground v.1.15,2013-08-12 23:58:00,
2013-08-12 20:04:00,82.9,76.1,30.06,SE,146,3.0,6.0,80,0.00,,,0.00,0,Wunderground v.1.15,2013-08-13 00:04:00,
2013-08-12 20:10:00,82.7,75.9,30.06,SE,124,3.0,6.0,80,0.00,,,0.00,0,Wunderground v.1.15,2013-08-13 00:10:00,
2013-08-12 20:16:00,82.6,75.8,30.06,SE,124,2.0,6.0,80,0.00,,,0.00,0,Wunderground v.1.15,2013-08-13 00:16:00,
2013-08-12 20:22:00,82.5,75.7,30.06,SE,133,1.0,1.0,80,0.00,,,0.00,0,Wunderground v.1.15,2013-08-13 00:22:00,
2013-08-12 20:28:00,82.5,75.7,30.06,ESE,105,2.0,2.0,80,0.00,,,0.00,0,Wunderground v.1.15,2013-08-13 00:28:00,
2013-08-12 20:34:00,82.4,75.6,30.06,ESE,114,1.0,3.0,80,0.00,,,0.00,0,Wunderground v.1.15,2013-08-13 00:34:00,
2013-08-12 20:40:00,82.4,75.6,30.06,ESE,103,1.0,3.0,80,0.00,,,0.00,0,Wunderground v.1.15,2013-08-13 00:40:00,
2013-08-12 20:46:00,82.4,75.6,30.06,ESE,121,3.0,3.0,80,0.00,,,0.00,0,Wunderground v.1.15,2013-08-13 00:46:00,
2013-08-12 20:52:00,82.4,75.6,30.06,SE,132,3.0,5.0,80,0.00,,,0.00,0,Wunderground v.1.15,2013-08-13 00:52:00,
2013-08-12 20:58:00,82.4,75.6,30.06,ESE,116,3.0,5.0,80,0.00,,,0.00,0,Wunderground v.1.15,2013-08-13 00:58:00,
2013-08-12 21:04:00,82.4,76.0,30.06,ESE,119,2.0,4.0,81,0.00,,,0.00,0,Wunderground v.1.15,2013-08-13 01:04:00,
2013-08-12 21:10:00,82.4,76.0,30.06,ESE,123,3.0,3.0,81,0.00,,,0.00,0,Wunderground v.1.15,2013-08-13 01:10:00,
2013-08-12 21:16:00,82.3,75.9,30.07,East,97,2.0,3.0,81,0.00,,,0.00,0,Wunderground v.1.15,2013-08-13 01:16:00,
2013-08-12 21:22:00,82.3,75.9,30.07,SSE,161,3.0,4.0,81,0.00,,,0.00,0,Wunderground v.1.15,2013-08-13 01:22:00,
2013-08-12 21:28:00,82.3,75.9,30.07,ESE,113,4.0,7.0,81,0.00,,,0.00,0,Wunderground v.1.15,2013-08-13 01:28:00,
2013-08-12 21:34:00,82.3,76.3,30.07,ESE,121,4.0,6.0,82,0.00,,,0.00,0,Wunderground v.1.15,2013-08-13 01:34:00,
2013-08-12 21:40:00,82.3,75.9,30.07,ESE,114,4.0,4.0,81,0.00,,,0.00,0,Wunderground v.1.15,2013-08-13 01:40:00,
2013-08-12 21:46:00,82.3,76.3,30.07,ESE,123,3.0,4.0,82,0.00,,,0.00,0,Wunderground v.1.15,2013-08-13 01:46:00,
2013-08-12 21:52:00,82.3,75.9,30.08,ESE,113,2.0,4.0,81,0.00,,,0.00,0,Wunderground v.1.15,2013-08-13 01:52:00,
2013-08-12 21:58:00,82.3,75.9,30.08,ESE,111,3.0,4.0,81,0.00,,,0.00,0,Wunderground v.1.15,2013-08-13 01:58:00,
2013-08-12 22:04:00,82.3,75.9,30.07,ESE,115,1.0,2.0,81,0.00,,,0.00,0,Wunderground v.1.15,2013-08-13 02:04:00,
2013-08-12 22:10:00,82.3,76.3,30.08,SE,136,2.0,2.0,82,0.00,,,0.00,0,Wunderground v.1.15,2013-08-13 02:10:00,
2013-08-12 22:16:00,82.3,76.3,30.08,East,99,3.0,6.0,82,0.00,,,0.00,0,Wunderground v.1.15,2013-08-13 02:16:00,
2013-08-12 22:22:00,82.3,76.3,30.08,SE,132,3.0,5.0,82,0.00,,,0.00,0,Wunderground v.1.15,2013-08-13 02:22:00,
2013-08-12 22:28:00,82.3,76.6,30.08,ESE,122,3.0,9.0,83,0.00,,,0.00,0,Wunderground v.1.15,2013-08-13 02:28:00,
2013-08-12 22:34:00,82.2,76.5,30.08,SE,136,2.0,4.0,83,0.00,,,0.00,0,Wunderground v.1.15,2013-08-13 02:34:00,
2013-08-12 22:40:00,82.1,76.1,30.08,ESE,122,2.0,4.0,82,0.00,,,0.00,0,Wunderground v.1.15,2013-08-13 02:40:00,
2013-08-12 22:46:00,82.1,76.1,30.08,ESE,103,2.0,4.0,82,0.00,,,0.00,0,Wunderground v.1.15,2013-08-13 02:46:00,
2013-08-12 22:52:00,82.1,76.1,30.08,ESE,121,2.0,3.0,82,0.00,,,0.00,0,Wunderground v.1.15,2013-08-13 02:52:00,
2013-08-12 22:58:00,82.1,76.4,30.08,ESE,113,2.0,3.0,83,0.00,,,0.00,0,Wunderground v.1.15,2013-08-13 02:58:00,
2013-08-12 23:04:00,82.2,76.5,30.08,SE,124,3.0,4.0,83,0.00,,,0.00,0,Wunderground v.1.15,2013-08-13 03:04:00,
2013-08-12 23:10:00,82.1,76.4,30.09,SE,136,4.0,5.0,83,0.00,,,0.00,0,Wunderground v.1.15,2013-08-13 03:10:00,
2013-08-12 23:16:00,82.1,76.4,30.09,SSE,149,5.0,6.0,83,0.00,,,0.00,0,Wunderground v.1.15,2013-08-13 03:16:00,
2013-08-12 23:22:00,82.0,76.0,30.09,SSE,149,3.0,3.0,82,0.00,,,0.00,0,Wunderground v.1.15,2013-08-13 03:22:00,
2013-08-12 23:28:00,82.0,76.3,30.09,SSE,147,3.0,5.0,83,0.00,,,0.00,0,Wunderground v.1.15,2013-08-13 03:28:00,
2013-08-12 23:34:00,82.0,76.3,30.09,SSE,154,2.0,7.0,83,0.00,,,0.00,0,Wunderground v.1.15,2013-08-13 03:34:00,
2013-08-12 23:40:00,82.0,76.3,30.09,SSE,151,1.0,1.0,83,0.00,,,0.00,0,Wunderground v.1.15,2013-08-13 03:40:00,
2013-08-12 23:46:00,81.9,76.2,30.09,SSE,152,1.0,1.0,83,0.00,,,0.00,0,Wunderground v.1.15,2013-08-13 03:46:00,
2013-08-12 23:54:00,81.8,76.5,30.09,SSE,150,1.0,1.0,84,0.00,,,0.00,0,Wunderground v.1.15,2013-08-13 03:54:00,